GW1259 Weather Reports


time (UTC)temp
C
wind
direction
speed
KPH
gust
KPH
rain 1hr
cm
rain 24hr
cm
rain mn
cm
humidity
%
barometer
mb
20260504081556 7 0 0.0 0.0 0.00 0.00 0.00 79 1015.7
20260504050105 6 0 0.0 0.0 0.00 0.00 0.00 77 1016.2
20260504044600 6 0 0.0 0.0 0.00 0.00 0.00 78 1015.9
20260504043055 6 0 0.0 1.6 0.00 0.00 0.00 78 1016.0
20260504041601 6 0 0.0 1.6 0.00 0.00 0.00 77 1016.1
20260504040057 6 0 0.0 1.6 0.00 0.00 0.00 78 1016.0
20260504034553 6 0 0.0 1.6 0.00 0.00 0.00 80 1016.0
20260504033057 6 0 0.0 1.6 0.00 0.00 0.00 79 1016.1
20260504031557 6 0 0.0 1.6 0.00 0.00 0.00 78 1016.2
20260504030056 6 0 0.0 1.6 0.00 0.00 0.00 77 1016.1
20260504024609 6 0 0.0 3.2 0.00 0.00 0.00 75 1016.0
20260504023054 6 0 0.0 0.0 0.00 0.00 0.00 71 1016.1
20260504021554 7 0 0.0 0.0 0.00 0.00 0.00 69 1015.9
20260504020055 7 0 0.0 0.0 0.00 0.00 0.00 71 1015.9
20260504014601 7 0 0.0 1.6 0.00 0.00 0.00 65 1015.7
20260504013058 8 0 0.0 0.0 0.00 0.00 0.00 66 1015.5
20260504011555 8 0 0.0 0.0 0.00 0.00 0.00 62 1015.2
20260504010104 9 0 0.0 0.0 0.00 0.00 0.00 62 1015.1
20260504004554 9 0 0.0 0.0 0.00 0.00 0.00 60 1015.1
20260504003057 10 0 0.0 0.0 0.00 0.00 0.00 61 1014.9
20260504001557 11 0 0.0 1.6 0.00 0.00 0.00 52 1014.8
20260504000139 11 0 0.0 0.0 0.00 0.00 0.00 49 1014.9
20260503234601 13 250 0.0 0.0 0.00 0.00 0.00 49 1014.8
20260503233057 15 0 0.0 0.0 0.00 0.00 0.00 44 1014.7
20260503231600 16 0 0.0 3.2 0.00 0.00 0.00 32 1014.6
20260503230054 16 293 0.0 1.6 0.00 0.00 0.00 33 1014.5
20260503224556 16 0 0.0 4.8 0.00 0.00 0.00 30 1014.4
20260503223100 16 296 1.6 3.2 0.00 0.00 0.00 30 1014.5
20260503221600 16 268 1.6 4.8 0.00 0.00 0.00 30 1014.6
20260503220056 16 240 3.2 9.7 0.00 0.00 0.00 29 1014.6
20260503214552 16 207 1.6 6.4 0.00 0.00 0.00 34 1014.6
20260503213107 16 263 3.2 9.7 0.00 0.00 0.00 30 1014.5
20260503211613 16 284 1.6 6.4 0.00 0.00 0.00 34 1014.9
20260503210055 16 23 1.6 9.7 0.00 0.00 0.00 36 1014.8
20260503204555 16 248 1.6 9.7 0.00 0.00 0.00 33 1014.8
20260503203107 16 245 1.6 9.7 0.00 0.00 0.00 32 1015.0
20260503201556 17 226 1.6 14.5 0.00 0.00 0.00 32 1015.0
20260503200053 16 19 3.2 12.9 0.00 0.00 0.00 31 1015.2
20260503194558 16 223 4.8 9.7 0.00 0.00 0.00 35 1015.5
20260503193054 16 336 3.2 11.3 0.00 0.00 0.00 35 1015.8
20260503191559 16 241 3.2 14.5 0.00 0.00 0.00 35 1016.1
20260503190056 16 296 0.0 9.7 0.00 0.00 0.00 37 1016.4
20260503184555 15 192 1.6 11.3 0.00 0.00 0.00 35 1016.5
20260503183055 15 234 1.6 8.0 0.00 0.00 0.00 34 1016.6
20260503181616 15 174 3.2 9.7 0.00 0.00 0.00 41 1016.7
20260503174557 14 240 1.6 6.4 0.00 0.00 0.00 39 1016.7
20260503173100 14 248 1.6 6.4 0.00 0.00 0.00 38 1017.0
20260503171554 13 227 3.2 8.0 0.00 0.00 0.00 40 1017.2